Hourly Weather Bolshie Leznevichi

Today, 31 July, Saturday

Time Temperature Precipitation Wind Pressure Humidity
00:00 +16°C° 0 mm 2 mps 731 mmHg 76%
01:00 +16°C° 0 mm 3 mps 731 mmHg 77%
02:00 +14°C° 0 mm 3 mps 731 mmHg 78%
03:00 +14°C° 0 mm 3 mps 731 mmHg 80%
04:00 +14°C° 0 mm 2 mps 731 mmHg 81%
05:00 +14°C° 0 mm 2 mps 731 mmHg 83%
06:00 +16°C° 0 mm 3 mps 731 mmHg 78%
07:00 +17°C° 0 mm 3 mps 731 mmHg 73%
08:00 +19°C° 0 mm 3 mps 732 mmHg 70%
09:00 +20°C° 0 mm 3 mps 732 mmHg 65%
10:00 +22°C° 0 mm 4 mps 732 mmHg 60%
11:00 +23°C° 0 mm 4 mps 732 mmHg 56%
12:00 +25°C° 0 mm 4 mps 732 mmHg 54%
13:00 +26°C° 0 mm 4 mps 732 mmHg 52%
14:00 +26°C° 0 mm 4 mps 732 mmHg 52%
15:00 +26°C° 0 mm 3 mps 732 mmHg 54%
16:00 +26°C° 0 mm 2 mps 731 mmHg 57%
17:00 +26°C° 0 mm 2 mps 731 mmHg 60%
18:00 +25°C° 0 mm 2 mps 731 mmHg 64%
19:00 +24°C° 0 mm 2 mps 731 mmHg 68%
20:00 +22°C° 0 mm 1 mps 730 mmHg 73%
21:00 +20°C° 0.6 mm 2 mps 731 mmHg 79%
22:00 +19°C° 0.6 mm 3 mps 731 mmHg 86%
23:00 +18°C° 0.6 mm 3 mps 731 mmHg 93%

Tomorrow, 1 August, Sunday

Time Temperature Precipitation Wind Pressure Humidity
00:00 +18°C° 0.5 mm 3 mps 731 mmHg 94%
01:00 +17°C° 0.5 mm 3 mps 731 mmHg 95%
02:00 +17°C° 0.5 mm 3 mps 731 mmHg 96%
03:00 +17°C° 0 mm 3 mps 731 mmHg 95%
04:00 +17°C° 0 mm 3 mps 731 mmHg 94%
05:00 +17°C° 0 mm 3 mps 731 mmHg 93%
06:00 +18°C° 0 mm 3 mps 731 mmHg 88%
07:00 +19°C° 0 mm 3 mps 732 mmHg 83%
08:00 +19°C° 0 mm 4 mps 732 mmHg 78%
09:00 +21°C° 0 mm 4 mps 732 mmHg 70%
10:00 +22°C° 0 mm 4 mps 732 mmHg 62%
11:00 +23°C° 0 mm 4 mps 733 mmHg 54%
12:00 +25°C° 0 mm 3 mps 733 mmHg 53%
13:00 +25°C° 0 mm 3 mps 733 mmHg 52%
14:00 +26°C° 0 mm 3 mps 733 mmHg 50%
15:00 +25°C° 0 mm 3 mps 732 mmHg 53%
16:00 +25°C° 0 mm 2 mps 732 mmHg 56%
17:00 +25°C° 0 mm 1 mps 732 mmHg 59%
18:00 +23°C° 0.2 mm 1 mps 731 mmHg 68%
19:00 +20°C° 0.2 mm 2 mps 731 mmHg 77%
20:00 +18°C° 0.2 mm 2 mps 731 mmHg 86%
21:00 +18°C° 0.2 mm 2 mps 731 mmHg 88%
22:00 +18°C° 0.2 mm 1 mps 731 mmHg 89%
23:00 +18°C° 0.2 mm 1 mps 730 mmHg 91%

Day after tomorrow, 2 August, Monday

Time Temperature Precipitation Wind Pressure Humidity
00:00 +18°C° 0.3 mm 1 mps 730 mmHg 92%
01:00 +18°C° 0.3 mm 1 mps 730 mmHg 94%
02:00 +18°C° 0.3 mm 1 mps 729 mmHg 95%
03:00 +18°C° 0.3 mm 1 mps 729 mmHg 96%
04:00 +16°C° 0.3 mm 1 mps 728 mmHg 97%
05:00 +16°C° 0.3 mm 1 mps 728 mmHg 97%
06:00 +16°C° 0.4 mm 2 mps 728 mmHg 97%
07:00 +16°C° 0.4 mm 2 mps 728 mmHg 96%
08:00 +16°C° 0.4 mm 3 mps 728 mmHg 96%
09:00 +16°C° 0.5 mm 3 mps 729 mmHg 96%
10:00 +14°C° 0.5 mm 3 mps 729 mmHg 96%
11:00 +14°C° 0.5 mm 4 mps 729 mmHg 96%
12:00 +14°C° 0.9 mm 4 mps 730 mmHg 95%
13:00 +14°C° 0.9 mm 3 mps 730 mmHg 95%
14:00 +14°C° 0.9 mm 3 mps 730 mmHg 94%
15:00 +16°C° 0.1 mm 3 mps 731 mmHg 89%
16:00 +17°C° 0.1 mm 3 mps 731 mmHg 85%
17:00 +19°C° 0.1 mm 4 mps 731 mmHg 80%
18:00 +18°C° 0.2 mm 3 mps 731 mmHg 83%
19:00 +17°C° 0.2 mm 3 mps 731 mmHg 87%
20:00 +16°C° 0.2 mm 3 mps 731 mmHg 90%
21:00 +16°C° 0 mm 3 mps 732 mmHg 91%
22:00 +14°C° 0 mm 3 mps 732 mmHg 93%
23:00 +15°C° 0 mm 2 mps 732 mmHg 94%

3 August, Tuesday

Time Temperature Precipitation Wind Pressure Humidity
00:00 +14°C° 0 mm 2 mps 733 mmHg 94%
01:00 +14°C° 0 mm 2 mps 733 mmHg 94%
02:00 +13°C° 0 mm 2 mps 733 mmHg 94%
03:00 +13°C° 0 mm 2 mps 733 mmHg 94%
04:00 +13°C° 0 mm 2 mps 734 mmHg 95%
05:00 +12°C° 0 mm 2 mps 734 mmHg 95%
06:00 +13°C° 0 mm 3 mps 734 mmHg 90%
07:00 +14°C° 0 mm 3 mps 734 mmHg 86%
08:00 +15°C° 0 mm 4 mps 735 mmHg 82%
09:00 +18°C° 0.1 mm 4 mps 735 mmHg 74%
10:00 +19°C° 0.1 mm 5 mps 735 mmHg 66%
11:00 +20°C° 0.1 mm 5 mps 735 mmHg 58%
12:00 +20°C° 0 mm 5 mps 735 mmHg 57%
13:00 +21°C° 0 mm 5 mps 735 mmHg 55%
14:00 +21°C° 0 mm 5 mps 735 mmHg 53%
15:00 +20°C° 0 mm 5 mps 736 mmHg 57%
16:00 +20°C° 0 mm 4 mps 736 mmHg 61%
17:00 +20°C° 0 mm 3 mps 736 mmHg 64%
18:00 +18°C° 0 mm 3 mps 736 mmHg 69%
19:00 +17°C° 0 mm 3 mps 736 mmHg 74%
20:00 +16°C° 0 mm 2 mps 736 mmHg 79%
21:00 +15°C° 0 mm 2 mps 736 mmHg 82%
22:00 +14°C° 0 mm 2 mps 736 mmHg 85%
23:00 +14°C° 0 mm 2 mps 737 mmHg 88%

4 August, Wednesday

Time Temperature Precipitation Wind Pressure Humidity
00:00 +13°C° 0 mm 2 mps 737 mmHg 89%
01:00 +13°C° 0 mm 2 mps 737 mmHg 89%
02:00 +13°C° 0 mm 1 mps 737 mmHg 89%
03:00 +13°C° 0 mm 1 mps 737 mmHg 89%
04:00 +12°C° 0 mm 1 mps 737 mmHg 89%
05:00 +12°C° 0 mm 1 mps 737 mmHg 88%
06:00 +14°C° 0 mm 1 mps 737 mmHg 82%
07:00 +16°C° 0 mm 1 mps 738 mmHg 75%
08:00 +19°C° 0 mm 1 mps 738 mmHg 68%
09:00 +19°C° 0 mm 2 mps 738 mmHg 62%
10:00 +21°C° 0 mm 2 mps 738 mmHg 56%
11:00 +23°C° 0 mm 2 mps 738 mmHg 50%
12:00 +24°C° 0 mm 2 mps 738 mmHg 49%
13:00 +24°C° 0 mm 2 mps 738 mmHg 47%
14:00 +25°C° 0 mm 2 mps 738 mmHg 45%
15:00 +25°C° 0 mm 2 mps 737 mmHg 48%
16:00 +25°C° 0 mm 2 mps 737 mmHg 50%
17:00 +25°C° 0 mm 2 mps 737 mmHg 53%
18:00 +23°C° 0.1 mm 2 mps 737 mmHg 59%
19:00 +20°C° 0.1 mm 2 mps 737 mmHg 66%
20:00 +19°C° 0.1 mm 3 mps 737 mmHg 72%
21:00 +18°C° 0.4 mm 2 mps 737 mmHg 78%
22:00 +17°C° 0.4 mm 2 mps 737 mmHg 83%
23:00 +17°C° 0.4 mm 2 mps 737 mmHg 89%

5 August, Thursday

Time Temperature Precipitation Wind Pressure Humidity
00:00 +16°C° 0 mm 2 mps 736 mmHg 89%
01:00 +16°C° 0 mm 2 mps 736 mmHg 90%
02:00 +16°C° 0 mm 3 mps 736 mmHg 90%
03:00 +14°C° 0.5 mm 3 mps 735 mmHg 92%
04:00 +14°C° 0.5 mm 3 mps 735 mmHg 93%
05:00 +15°C° 0.5 mm 2 mps 735 mmHg 95%
06:00 +15°C° 0.9 mm 2 mps 735 mmHg 96%
07:00 +16°C° 0.9 mm 2 mps 735 mmHg 97%
08:00 +16°C° 0.9 mm 2 mps 735 mmHg 97%
09:00 +17°C° 0.7 mm 2 mps 735 mmHg 94%
10:00 +18°C° 0.7 mm 3 mps 735 mmHg 91%
11:00 +19°C° 0.7 mm 3 mps 735 mmHg 88%
12:00 +20°C° 0.1 mm 3 mps 734 mmHg 83%
13:00 +21°C° 0.1 mm 3 mps 734 mmHg 79%
14:00 +22°C° 0.1 mm 3 mps 734 mmHg 74%
15:00 +22°C° 0.1 mm 3 mps 733 mmHg 76%
16:00 +23°C° 0.1 mm 2 mps 733 mmHg 77%
17:00 +23°C° 0.1 mm 2 mps 733 mmHg 78%
18:00 +20°C° 0.5 mm 2 mps 732 mmHg 84%
19:00 +19°C° 0.5 mm 2 mps 732 mmHg 89%
20:00 +18°C° 0.5 mm 2 mps 732 mmHg 95%
21:00 +18°C° 0.4 mm 2 mps 731 mmHg 95%
22:00 +17°C° 0.4 mm 2 mps 731 mmHg 96%
23:00 +18°C° 0.4 mm 1 mps 730 mmHg 96%
Show more

We Need Your Consent

Meteoprog and our Service Providers may store and access personal data such as cookies, device identifiers or other similar technologies on your device and process such data to personalise content and ads, as well as provide social media features and to analyse the traffic.

  • Store and/or access information on your device

    Cookies, device identifiers or other information can be stored or accessed on your device for the purposes indicated above.

  • Personalised ads and content, ad and content measurement, audience insights, and products development

    Ads and content can be personalised based on a profile. More data can be added to better personalise ads and content. Ad and content performance can be measured. Insights about the audience who saw the ads and content can be derived. Such data can be used to develop or improve user’s experience, systems and software.

By clicking ‘I Agree’ you will allow the use of indicated cookies, device identifiers, web beacons or other similar technologies. Your settings can be changed in the browser on your device.

For certain purposes, legitimate interests may be relied on, rather than consent. You can read more about this in our Privacy and Cookie Policy.